Weather History for Lapeer, MI

Change the Weather History Date:

Wednesday, August 27, 2014

  Actual Average (KFNT) Record (KFNT)
Temperature  
Mean Temperature 67 °F 67 °F  
Max Temperature 74 °F 78 °F 98 °F (1948)
Min Temperature 60 °F 56 °F 42 °F (1927)
Degree Days  
Heating Degree Days 0 1  
Month to date heating degree days 26  
Since 1 June heating degree days 107  
Since 1 July heating degree days 41  
Cooling Degree Days 2 4  
Month to date cooling degree days 133  
Year to date cooling degree days 464  
Since 1 June cooling degree days 432  
Growing Degree Days 17 (Base 50)    
Moisture  
Dew Point 58 °F    
Average Humidity 75    
Maximum Humidity 93    
Minimum Humidity 51    
Precipitation  
Precipitation 0.00 in 0.10 in 1.54 in (1992)
Month to date precipitation 2.74  
Year to date precipitation 20.12  
Snow  
Snow 0.00 in 0.00 in 0.00 in ()
Month to date snowfall 0.0  
Since 1 June snowfall 0.0  
Since 1 July snowfall 0.0  
Snow Depth -    
Sea Level Pressure  
Sea Level Pressure 30.12 in    
Wind  
Wind Speed 3 mph (NNE)    
Max Wind Speed 9 mph    
Max Gust Speed -    
Visibility 10 miles    
Events      
T = Trace of Precipitation, MM = Missing Value Source: NWS Daily Summary

Daily Weather History Graph

Daily Weather History Graph

Search for Another Location

Airport:

Trip Planner

Search our weather history database for the weather conditions in past years. The results will help you decide how hot, cold, wet, or windy it might be!

Date:

Astronomy

Aug. 27, 2014 Rise Set
Actual Time 6:51 AM EDT 8:16 PM EDT
Civil Twilight 6:22 AM EDT 8:45 PM EDT
Nautical Twilight 5:46 AM EDT 9:21 PM EDT
Astronomical Twilight 5:08 AM EDT 9:59 PM EDT
Moon 8:51 AM EDT (8/27) 9:03 PM EDT (8/27)
Length of Visible Light 14h 23m
Length of Day
13h 24m
Waxing Crescent, 4% of the Moon is Illuminated
Aug 27
Waxing Crescent
Sep 2
First Quarter
Sep 8
Full
Sep 15
Last Quarter
Sep 24
New

Hourly Weather History & Observations

Time (EDT) Temp. Dew Point Humidity Pressure Visibility Wind Dir Wind Speed Gust Speed Precip Events Conditions
12:13 AM 69.8 °F 67.5 °F 92% 30.07 in 10.0 mi West 3.5 mph - N/A   Overcast
12:34 AM 70.0 °F 67.6 °F 92% 30.08 in 10.0 mi WNW 4.6 mph - N/A   Overcast
12:54 AM 70.0 °F 67.8 °F 93% 30.08 in 10.0 mi WNW 4.6 mph - N/A   Overcast
1:13 AM 70.2 °F 68.0 °F 93% 30.08 in 10.0 mi Calm Calm - N/A   Overcast
1:34 AM 67.3 °F 63.7 °F 88% 30.10 in 10.0 mi ENE 6.9 mph - N/A   Overcast
1:54 AM 65.3 °F 61.7 °F 88% 30.10 in 10.0 mi NE 3.5 mph - N/A   Mostly Cloudy
2:13 AM 64.6 °F 61.0 °F 88% 30.11 in 10.0 mi ENE 3.5 mph - N/A   Mostly Cloudy
2:34 AM 64.4 °F 60.8 °F 88% 30.10 in 10.0 mi ENE 4.6 mph - N/A   Overcast
2:54 AM 64.4 °F 60.1 °F 86% 30.11 in 10.0 mi ENE 4.6 mph - N/A   Overcast
3:14 AM 64.4 °F 59.7 °F 85% 30.11 in 10.0 mi ENE 3.5 mph - N/A   Overcast
3:34 AM 64.4 °F 59.4 °F 84% 30.11 in 10.0 mi NE 3.5 mph - N/A   Overcast
3:54 AM 63.5 °F 59.0 °F 85% 30.11 in 10.0 mi Calm Calm - N/A   Overcast
4:14 AM 63.5 °F 59.2 °F 86% 30.10 in 10.0 mi Calm Calm - N/A   Overcast
4:34 AM 63.5 °F 59.2 °F 86% 30.10 in 10.0 mi ENE 3.5 mph - N/A   Overcast
4:54 AM 63.5 °F 58.6 °F 84% 30.11 in 10.0 mi ENE 3.5 mph - N/A   Overcast
5:14 AM 63.1 °F 58.3 °F 84% 30.12 in 10.0 mi ENE 3.5 mph - N/A   Overcast
5:34 AM 63.0 °F 57.7 °F 83% 30.12 in 10.0 mi ENE 4.6 mph - N/A   Overcast
5:54 AM 62.1 °F 56.1 °F 81% 30.12 in 10.0 mi Calm Calm - N/A   Overcast
6:14 AM 61.2 °F 56.3 °F 84% 30.12 in 10.0 mi Calm Calm - N/A   Scattered Clouds
6:34 AM 61.0 °F 57.4 °F 88% 30.13 in 10.0 mi Calm Calm - N/A   Mostly Cloudy
6:54 AM 60.6 °F 57.9 °F 91% 30.13 in 10.0 mi Calm Calm - N/A   Overcast
7:14 AM 61.0 °F 57.2 °F 87% 30.13 in 10.0 mi Calm Calm - N/A   Overcast
7:34 AM 61.2 °F 56.7 °F 85% 30.13 in 10.0 mi Calm Calm - N/A   Overcast
7:54 AM 61.5 °F 57.0 °F 85% 30.14 in 10.0 mi Calm Calm - N/A   Overcast
8:14 AM 61.9 °F 56.7 °F 83% 30.15 in 10.0 mi Calm Calm - N/A   Overcast
8:34 AM 62.6 °F 57.2 °F 82% 30.16 in 10.0 mi Calm Calm - N/A   Overcast
8:53 AM 62.8 °F 57.7 °F 84% 30.15 in 10.0 mi Calm Calm - N/A   Overcast
9:14 AM 63.5 °F 57.9 °F 82% 30.16 in 10.0 mi North 5.8 mph - N/A   Overcast
9:34 AM 63.7 °F 56.8 °F 78% 30.16 in 10.0 mi NNE 3.5 mph - N/A   Overcast
9:54 AM 63.9 °F 56.7 °F 77% 30.16 in 10.0 mi NNW 3.5 mph - N/A   Overcast
10:14 AM 64.4 °F 56.1 °F 74% 30.15 in 10.0 mi ENE 3.5 mph - N/A   Overcast
10:33 AM 64.8 °F 56.1 °F 74% 30.15 in 10.0 mi Calm Calm - N/A   Overcast
11:14 AM 65.5 °F 56.1 °F 72% 30.15 in 10.0 mi Calm Calm - N/A   Scattered Clouds
11:33 AM 66.7 °F 56.1 °F 69% 30.15 in 10.0 mi NNE 3.5 mph - N/A   Mostly Cloudy
11:54 AM 67.1 °F 56.1 °F 68% 30.14 in 10.0 mi ENE 3.5 mph - N/A   Scattered Clouds
12:14 PM 68.2 °F 56.1 °F 65% 30.15 in 10.0 mi Calm Calm - N/A   Clear
12:33 PM 69.6 °F 56.3 °F 63% 30.15 in 10.0 mi NNW 4.6 mph - N/A   Scattered Clouds
12:54 PM 70.2 °F 56.1 °F 61% 30.14 in 10.0 mi NNW 4.6 mph - N/A   Clear
1:14 PM 71.4 °F 56.1 °F 58% 30.14 in 10.0 mi NW 4.6 mph - N/A   Scattered Clouds
1:33 PM 71.6 °F 56.1 °F 58% 30.14 in 10.0 mi NNW 3.5 mph - N/A   Scattered Clouds
1:54 PM 72.3 °F 55.6 °F 56% 30.14 in 10.0 mi North 3.5 mph - N/A   Mostly Cloudy
2:14 PM 72.0 °F 56.1 °F 57% 30.14 in 10.0 mi North 6.9 mph - N/A   Scattered Clouds
2:33 PM 73.8 °F 55.2 °F 52% 30.13 in 10.0 mi NNE 5.8 mph - N/A   Mostly Cloudy
3:14 PM 72.9 °F 55.9 °F 55% 30.13 in 10.0 mi North 8.1 mph - N/A   Mostly Cloudy
3:33 PM 72.9 °F 55.0 °F 53% 30.12 in 10.0 mi North 9.2 mph - N/A   Scattered Clouds
3:54 PM 73.6 °F 55.8 °F 54% 30.12 in 10.0 mi NNW 6.9 mph - N/A   Clear
4:14 PM 72.5 °F 54.9 °F 54% 30.12 in 10.0 mi North 6.9 mph - N/A   Scattered Clouds
4:33 PM 74.1 °F 54.9 °F 51% 30.11 in 10.0 mi North 8.1 mph - N/A   Mostly Cloudy
4:54 PM 73.9 °F 54.9 °F 51% 30.11 in 10.0 mi North 5.8 mph - N/A   Mostly Cloudy
5:14 PM 72.5 °F 55.6 °F 55% 30.11 in 10.0 mi North 6.9 mph - N/A   Mostly Cloudy
5:33 PM 72.5 °F 55.0 °F 54% 30.11 in 10.0 mi NNE 6.9 mph - N/A   Mostly Cloudy
5:54 PM 72.9 °F 54.9 °F 53% 30.11 in 10.0 mi NNE 5.8 mph - N/A   Mostly Cloudy
6:14 PM 72.5 °F 54.9 °F 54% 30.12 in 10.0 mi North 6.9 mph - N/A   Mostly Cloudy
6:34 PM 71.1 °F 54.9 °F 56% 30.11 in 10.0 mi North 5.8 mph - N/A   Scattered Clouds
6:54 PM 70.7 °F 56.1 °F 60% 30.11 in 10.0 mi North 3.5 mph - N/A   Clear
7:14 PM 70.7 °F 56.5 °F 61% 30.10 in 10.0 mi North 4.6 mph - N/A   Mostly Cloudy
7:34 PM 69.6 °F 57.7 °F 66% 30.11 in 10.0 mi NNE 5.8 mph - N/A   Overcast
7:54 PM 68.4 °F 58.5 °F 71% 30.11 in 10.0 mi NNE 3.5 mph - N/A   Mostly Cloudy
8:13 PM 67.8 °F 58.5 °F 72% 30.11 in 10.0 mi NNE 3.5 mph - N/A   Overcast
8:34 PM 67.1 °F 58.1 °F 73% 30.11 in 10.0 mi Calm Calm - N/A   Overcast
8:54 PM 65.8 °F 58.1 °F 76% 30.11 in 10.0 mi Calm Calm - N/A   Mostly Cloudy
9:13 PM 64.6 °F 58.5 °F 80% 30.12 in 10.0 mi Calm Calm - N/A   Scattered Clouds
9:34 PM 62.6 °F 58.8 °F 87% 30.11 in 10.0 mi Calm Calm - N/A   Mostly Cloudy
9:54 PM 62.8 °F 59.0 °F 87% 30.11 in 10.0 mi Calm Calm - N/A   Mostly Cloudy
10:13 PM 61.7 °F 58.6 °F 90% 30.12 in 10.0 mi Calm Calm - N/A   Scattered Clouds
10:34 PM 60.8 °F 58.1 °F 91% 30.12 in 10.0 mi ENE 5.8 mph - N/A   Mostly Cloudy
10:54 PM 61.7 °F 55.6 °F 80% 30.13 in 10.0 mi East 3.5 mph - N/A   Overcast
11:14 PM 61.5 °F 55.4 °F 80% 30.15 in 10.0 mi East 3.5 mph - N/A   Overcast
11:34 PM 61.2 °F 55.6 °F 82% 30.15 in 10.0 mi ENE 3.5 mph - N/A   Overcast
11:53 PM 61.0 °F 55.0 °F 81% 30.15 in 10.0 mi ENE 3.5 mph - N/A   Overcast